Location: Campillo
(40.8621°N, 4.2488°W)
Time: 11:47:57
(UTC+00:00)

Cosmos 1242 Rocket - Pass Details

Date: 11 May 2021
Orbit: 445 x 484 km, 81.2° (Epoch: 13 June)

Event Time Altitude Azimuth Distance (km) Brightness Sun altitude
Exits shadow 20:22:42 - 180° (S) 2,366 5.7 -10.4°
Reaches altitude 10° 20:24:28 10° 177° (S) 1,635 4.9 -10.7°
Maximum altitude 20:28:00 61° 97° (E) 539 2.5 -11.2°
Drops below altitude 10° 20:31:30 10° 17° (NNE) 1,627 5.5 -11.8°
Sets 20:33:36 0° 14° (NNE) 2,500 6.5 -12.1°
